Location: Sulphur Springs (historical)
(38.1246°N, 122.1900°W)
Time: 10:01:28
(UTC+00:00)

Cosmos 1697 Rocket - Pass Details

Date: 29 October 2020
Orbit: 831 x 845 km, 71.0° (Epoch: 23 November)

Event Time Altitude Azimuth Distance (km) Brightness Sun altitude
Exits shadow 12:32:05 31° 334° (NNW) 1,449 3.7 -24.1°
Maximum altitude 12:34:57 84° 249° (WSW) 853 2.5 -23.6°
Drops below altitude 10° 12:40:36 10° 162° (SSE) 2,456 5.3 -22.5°
Sets 12:43:01 0° 162° (SSE) 3,387 6.1 -22.0°
